Le nostre stazioni meteo in Italia

Pubblicità
Il mio iltempo24.it
Roma/Ciampino, Italia (16239): Temperatura & dewpoint: 19.05.2019 08:00:00 - 25.05.2019 08:00:00 (CEST)Roma/Ciampino, Italia (16239): velocità del vento: 19.05.2019 08:00:00 - 25.05.2019 08:00:00 (CEST)Roma/Ciampino, Italia (16239): direzione del vento: 19.05.2019 08:00:00 - 25.05.2019 08:00:00 (CEST)Roma/Ciampino, Italia (16239): reduced air pressure: 19.05.2019 08:00:00 - 25.05.2019 08:00:00 (CEST)Roma/Ciampino, Italia (16239): visibility: 19.05.2019 08:00:00 - 25.05.2019 08:00:00 (CEST)Roma/Ciampino, Italia (16239): precipitazioni: 19.05.2019 08:00:00 - 25.05.2019 08:00:00 (CEST)
Data & Tempo tt [°C] td [°C] ff [km/h] ff [kn] dd ppp [hPa] vv [km] rr [mm]
25.05.2019 08:00:00 - - - - - - - -
25.05.2019 07:00:00 13,0 10,0 5 3 ESE - 10 -
25.05.2019 06:00:00 11,0 9,0 9 5 ESE - 10 -
25.05.2019 05:00:00 12,1 9,5 8 4 E 1014,4 10 0,0
25.05.2019 04:00:00 12,0 10,0 5 3 ESE - 10 -
25.05.2019 03:00:00 13,0 10,0 9 5 E - 10 -
25.05.2019 02:00:00 13,0 11,0 4 2 - 1014,7 10 -
25.05.2019 01:00:00 14,0 12,0 8 4 E - 10 -
25.05.2019 00:00:00 14,0 13,0 8 4 E - 10 -
24.05.2019 23:00:00 14,4 12,7 5 3 ESE 1015,7 10 0,0
24.05.2019 22:00:00 16,0 13,0 8 4 S - 10 -
24.05.2019 21:00:00 16,0 13,0 8 4 SSO - 10 -
24.05.2019 20:00:00 17,4 13,1 9 5 SO 1014,5 10 -
24.05.2019 19:00:00 18,0 13,0 11 6 SSO - 10 -
24.05.2019 18:00:00 20,0 12,0 15 8 SSO - 10 -
24.05.2019 17:00:00 20,1 12,3 13 7 SO 1014,4 10 0,0
24.05.2019 16:00:00 21,0 14,0 15 8 SSO - 10 -
24.05.2019 15:00:00 20,0 14,0 13 7 SSO - 10 -
24.05.2019 14:00:00 21,1 13,6 13 7 SO 1015,1 10 -
24.05.2019 13:00:00 21,0 14,0 8 4 - - 10 -
24.05.2019 12:00:00 20,0 14,0 11 6 SSO - 10 -
24.05.2019 11:00:00 19,5 13,3 9 5 SO 1016,0 10 0,0
24.05.2019 10:00:00 19,0 13,0 4 2 - - 10 -
24.05.2019 09:00:00 17,0 13,0 4 2 - - 10 -
24.05.2019 08:00:00 15,0 12,0 4 2 N 1015,9 10 -
24.05.2019 07:00:00 13,0 11,0 5 3 ENE - 10 -
24.05.2019 06:00:00 12,0 10,0 8 4 NNO - 10 -
24.05.2019 05:00:00 11,9 10,1 4 2 ENE 1015,2 10 0,0
24.05.2019 04:00:00 12,0 11,0 5 3 E - 10 -
24.05.2019 03:00:00 13,0 11,0 8 4 E - 10 -
24.05.2019 02:00:00 12,2 10,9 8 4 ESE 1016,5 10 -
24.05.2019 01:00:00 13,0 11,0 8 4 ESE - 10 -
24.05.2019 00:00:00 13,0 12,0 4 2 ESE - 10 -
23.05.2019 23:00:00 14,8 12,8 2 1 - 1016,6 10 0,0
23.05.2019 22:00:00 16,0 13,0 4 2 S - 10 -
23.05.2019 21:00:00 17,0 13,0 4 2 - - 10 -
23.05.2019 20:00:00 17,6 12,3 5 3 O 1016,4 10 -
23.05.2019 19:00:00 18,0 12,0 5 3 SSO - 10 -
23.05.2019 18:00:00 18,0 11,0 9 5 SO - 10 -
23.05.2019 17:00:00 19,3 11,5 15 8 SSO 1016,1 10 0,0
23.05.2019 16:00:00 21,0 12,0 15 8 SSO - 10 -
23.05.2019 15:00:00 20,0 13,0 13 7 SO - 10 -
23.05.2019 14:00:00 20,8 13,7 13 7 SO 1016,5 10 -
23.05.2019 13:00:00 21,0 14,0 11 6 SSO - 10 -
23.05.2019 12:00:00 20,0 10,0 8 4 - - 10 -
23.05.2019 11:00:00 19,5 9,5 8 4 - 1017,3 10 0,0
23.05.2019 10:00:00 18,0 11,0 8 4 NO - 10 -
23.05.2019 09:00:00 17,0 11,0 5 3 NNE - 10 -
23.05.2019 08:00:00 16,7 10,0 2 1 - 1017,1 10 -
23.05.2019 07:00:00 13,0 9,0 9 5 E - 10 -
23.05.2019 06:00:00 12,0 9,0 11 6 E - 10 -
23.05.2019 05:00:00 11,8 8,2 9 5 E 1016,9 10 0,0
23.05.2019 04:00:00 12,0 8,0 9 5 E - 10 -
23.05.2019 03:00:00 11,0 8,0 8 4 E - 10 -
23.05.2019 02:00:00 11,8 8,5 9 5 E 1017,6 10 -
23.05.2019 01:00:00 12,0 9,0 8 4 E - 10 -
23.05.2019 00:00:00 13,0 11,0 8 4 E - 10 -
22.05.2019 23:00:00 13,7 11,1 4 2 ESE 1017,8 10 0,0
22.05.2019 22:00:00 15,0 12,0 2 1 - - 10 -
22.05.2019 21:00:00 16,0 12,0 4 2 - - 10 -
22.05.2019 20:00:00 16,7 12,2 8 4 SO 1016,6 10 -
22.05.2019 19:00:00 19,0 13,0 11 6 OSO - 10 -
22.05.2019 18:00:00 19,0 12,0 13 7 OSO - 10 -
22.05.2019 17:00:00 19,3 11,0 15 8 SSO 1016,3 10 0,0
22.05.2019 16:00:00 19,0 12,0 15 8 SSO - 10 -
22.05.2019 15:00:00 20,0 12,0 16 9 SSO - 10 -
22.05.2019 14:00:00 19,9 11,3 15 8 SSO 1016,9 10 -
22.05.2019 13:00:00 20,0 13,0 16 9 S - 10 -
22.05.2019 12:00:00 19,0 12,0 15 8 S - 10 -
22.05.2019 11:00:00 18,3 11,6 13 7 SSE 1016,9 10 0,0
22.05.2019 10:00:00 18,0 12,0 18 10 SSE - 10 -
22.05.2019 09:00:00 18,0 12,0 9 5 SSE - 10 -
22.05.2019 08:00:00 16,1 10,8 16 9 SE 1016,3 10 -
22.05.2019 07:00:00 14,0 11,0 13 7 SSE - 10 -
22.05.2019 06:00:00 13,0 9,0 15 8 SSE - 10 -
22.05.2019 05:00:00 13,0 7,9 9 5 SSE 1016,2 10 0,0
22.05.2019 04:00:00 13,0 8,0 5 3 S - 10 -
22.05.2019 03:00:00 14,0 9,0 13 7 SE - 10 -
22.05.2019 02:00:00 13,1 10,3 9 5 SE 1016,6 10 -
22.05.2019 01:00:00 14,0 11,0 11 6 SSE - 10 -
22.05.2019 00:00:00 14,0 12,0 11 6 S - 10 -
21.05.2019 23:00:00 14,4 11,6 11 6 SSE 1016,9 10 0,0
21.05.2019 22:00:00 15,0 13,0 13 7 SSE - 10 -
21.05.2019 21:00:00 16,0 12,0 11 6 S - 10 -
21.05.2019 20:00:00 16,9 11,5 15 8 S 1015,8 10 -
21.05.2019 19:00:00 18,0 10,0 11 6 SSO - 10 -
21.05.2019 18:00:00 18,0 11,0 13 7 SSO - 10 -
21.05.2019 17:00:00 18,6 10,4 13 7 S 1015,7 10 0,0
21.05.2019 16:00:00 18,0 10,0 13 7 SSO - 10 -
21.05.2019 15:00:00 17,0 11,0 15 8 SO - 10 -
21.05.2019 14:00:00 16,8 11,6 16 9 SSO 1015,6 10 -
21.05.2019 13:00:00 17,0 12,0 13 7 SSO - 10 -
21.05.2019 12:00:00 17,0 12,0 13 7 SSO - 9 -
21.05.2019 11:00:00 16,4 11,9 15 8 SSO 1014,3 9 0,0
21.05.2019 10:00:00 15,0 13,0 9 5 SSO - 7 -
21.05.2019 09:00:00 15,0 13,0 9 5 S - 7 -
21.05.2019 08:00:00 14,2 12,7 9 5 S 1012,7 7 -
21.05.2019 07:00:00 14,0 12,0 11 6 S - 7 -
21.05.2019 06:00:00 14,0 13,0 8 4 S - 6 -
21.05.2019 05:00:00 14,0 12,0 8 4 S - 10 -
21.05.2019 04:00:00 13,0 12,0 11 6 SSE - 10 -
21.05.2019 03:00:00 13,0 11,0 8 4 SSE - 10 -
21.05.2019 02:00:00 12,6 11,1 15 8 SE 1011,9 10 -
21.05.2019 01:00:00 12,0 10,0 16 9 SSE - 5 -
21.05.2019 00:00:00 13,0 11,0 13 7 SSE - 10 -
20.05.2019 23:00:00 13,0 11,8 8 4 S 1012,3 7 0,0
20.05.2019 22:00:00 14,0 11,0 11 6 S - 10 -
20.05.2019 21:00:00 14,0 11,0 11 6 S - 10 -
20.05.2019 20:00:00 15,0 9,7 11 6 SSO 1011,3 10 -
20.05.2019 19:00:00 17,0 8,0 13 7 SSO - 10 -
20.05.2019 18:00:00 17,0 9,0 15 8 SSO - 10 -
20.05.2019 17:00:00 16,8 9,2 13 7 S 1010,7 10 0,0
20.05.2019 16:00:00 16,0 9,0 11 6 S - 10 -
20.05.2019 15:00:00 16,0 10,0 11 6 SSE - 10 -
20.05.2019 14:00:00 13,3 10,5 9 5 SE 1011,2 10 -
20.05.2019 13:00:00 12,0 10,0 15 8 SE - 9 -
20.05.2019 12:00:00 12,0 9,0 8 4 ONO - 9 -
20.05.2019 11:00:00 14,4 10,9 11 6 E 1009,9 10 0,0
20.05.2019 10:00:00 10,0 9,0 15 8 NE - 6 -
20.05.2019 09:00:00 12,0 10,0 9 5 N - 9 -
20.05.2019 08:00:00 13,5 11,3 5 3 SE 1009,0 8 -
20.05.2019 07:00:00 12,0 11,0 9 5 SE - 10 -
20.05.2019 06:00:00 12,0 10,0 8 4 SE - 10 -
20.05.2019 05:00:00 11,7 9,7 9 5 SSE 1008,6 10 0,0
20.05.2019 04:00:00 - - - - - - - -
20.05.2019 03:00:00 13,0 10,0 9 5 S - 10 -
20.05.2019 02:00:00 12,8 10,5 11 6 S 1008,5 10 -
20.05.2019 01:00:00 14,0 11,0 15 8 SSO - 10 -
20.05.2019 00:00:00 14,0 11,0 16 9 SSE - 10 -
19.05.2019 23:00:00 13,6 11,0 15 8 SSE 1008,6 10 0,0
19.05.2019 22:00:00 14,0 11,0 9 5 SSE - 10 -
19.05.2019 21:00:00 14,0 10,0 8 4 S - 10 -
19.05.2019 20:00:00 14,5 10,5 11 6 SO 1008,2 10 -
19.05.2019 19:00:00 16,0 9,0 15 8 SO - 10 -
19.05.2019 18:00:00 17,0 9,0 18 10 OSO - 10 -
19.05.2019 17:00:00 17,3 9,1 16 9 OSO 1006,8 10 0,0
19.05.2019 16:00:00 17,0 11,0 18 10 O - 10 -
19.05.2019 15:00:00 18,0 11,0 15 8 OSO - 10 -
19.05.2019 14:00:00 17,6 11,6 15 8 SO 1005,7 10 -
19.05.2019 13:00:00 17,0 12,0 13 7 SSO - 10 -
19.05.2019 12:00:00 16,0 13,0 11 6 SSO - 9 -
19.05.2019 11:00:00 13,7 11,5 9 5 OSO 1005,2 9 0,0
19.05.2019 10:00:00 15,0 14,0 9 5 SSO - 6 -
19.05.2019 09:00:00 13,0 12,0 9 5 SE - 6 -
19.05.2019 08:00:00 14,5 12,2 9 5 S 1004,9 10 -

tt = Temperatura
td = dewpoint
ff = velocità del vento
dd = direzione del vento
ppp = reduced air pressure
vv = visibility
rr = precipitazioni

Stazioni seguenti

WeatherPro
AMSI
MeteoEarth